Location: Rometta
(44.2000°N, 10.0500°E)
Time: 23:01:26
(UTC+00:00)

Cosmos 2142 Rocket - Pass Details

Date: 20 January 2021
Orbit: 952 x 1005 km, 83.0° (Epoch: 04 March)

Event Time Altitude Azimuth Distance (km) Brightness Sun altitude
Rises 17:02:57 0° 352° (N) 3,662 7.4 -9.0°
Reaches altitude 10° 17:05:28 10° 352° (N) 2,705 6.7 -9.4°
Maximum altitude 17:11:40 87° 81° (E) 962 4.5 -10.4°
Drops below altitude 10° 17:17:47 10° 173° (S) 2,671 6.9 -11.5°
Sets 17:20:15 0° 173° (S) 3,612 7.6 -11.9°
